Location: *
(34.8620°S, 39.3380°E)
Time: 10:34:41
(UTC+00:00)

Cosmos 1153 Rocket - Pass Details

Date: 27 July 2021
Orbit: 954 x 1006 km, 82.9° (Epoch: 22 September)

Event Time Altitude Azimuth Distance (km) Brightness Sun altitude
Exits shadow 02:04:25 29° 190° (S) 1,774 5.7 -27.9°
Maximum altitude 02:07:59 82° 274° (W) 1,025 4.4 -27.2°
Drops below altitude 10° 02:14:21 10° 1° (N) 2,763 6.9 -25.9°
Sets 02:16:51 0° 2° (N) 3,698 7.6 -25.4°
